EW0466 Weather Reports


Display with metric or nautical units.
time (UTC)temp
F
wind
direction
speed
MPH
gust
MPH
rain 1hr
in
rain 24hr
in
rain mn
in
humidity
%
barometer
mb
20260510175526 82 268 1.0 8.0 0.00 0.00 0.00 34 1013.5
20260510175026 81 297 2.0 8.0 0.00 0.00 0.00 30 1013.4
20260510174541 81 257 5.0 8.0 0.00 0.00 0.00 33 1013.4
20260510174028 81 234 2.0 10.0 0.00 0.00 0.00 34 1013.4
20260510173527 81 218 4.0 10.0 0.00 0.00 0.00 31 1013.4
20260510173038 82 315 1.0 9.0 0.00 0.00 0.00 35 1013.4
20260510172527 82 192 4.0 10.0 0.00 0.00 0.00 34 1013.4
20260510172025 82 155 2.0 10.0 0.00 0.00 0.00 32 1013.5
20260510171546 81 276 4.0 10.0 0.00 0.00 0.00 33 1013.6
20260510171025 81 237 2.0 9.0 0.00 0.00 0.00 33 1013.6
20260510170527 80 54 1.0 10.0 0.00 0.00 0.00 33 1013.7
20260510170038 81 277 4.0 10.0 0.00 0.00 0.00 33 1013.8
20260510165526 81 269 3.0 10.0 0.00 0.00 0.00 33 1013.8
20260510165027 80 240 2.0 9.0 0.00 0.00 0.00 38 1013.8
20260510164538 81 298 5.0 9.0 0.00 0.00 0.00 37 1013.7
20260510164026 81 269 2.0 5.0 0.00 0.00 0.00 40 1013.7
20260510163526 81 296 1.0 4.0 0.00 0.00 0.00 37 1013.8
20260510163037 80 360 2.0 4.0 0.00 0.00 0.00 37 1013.6
20260510162527 80 26 1.0 4.0 0.00 0.00 0.00 44 1013.8
20260510162025 79 0 2.0 4.0 0.00 0.00 0.00 40 1013.8
20260510161539 79 0 2.0 5.0 0.00 0.00 0.00 41 1013.8
20260510161026 79 0 1.0 5.0 0.00 0.00 0.00 41 1013.8
20260510160526 79 205 0.0 4.0 0.00 0.00 0.00 41 1013.8
20260510160059 80 203 1.0 8.0 0.00 0.00 0.00 46 1013.9
20260510155525 79 197 1.0 8.0 0.00 0.00 0.00 46 1014.0
20260510155028 78 139 4.0 8.0 0.00 0.00 0.00 44 1014.0
20260510154541 78 129 1.0 7.0 0.00 0.00 0.00 46 1014.2
20260510154026 78 0 2.0 7.0 0.00 0.00 0.00 42 1014.2
20260510153526 77 298 1.0 6.0 0.00 0.00 0.00 46 1014.2
20260510153043 78 178 2.0 7.0 0.00 0.00 0.00 45 1014.2
20260510152526 77 109 2.0 8.0 0.00 0.00 0.00 45 1014.2
20260510152027 77 293 4.0 8.0 0.00 0.00 0.00 44 1014.4
20260510151541 77 284 3.0 8.0 0.00 0.00 0.00 46 1014.5
20260510151026 77 268 2.0 6.0 0.00 0.00 0.00 47 1014.3
20260510150528 78 0 1.0 6.0 0.00 0.00 0.00 47 1014.3
20260510150047 77 340 2.0 6.0 0.00 0.00 0.00 47 1014.2
20260510145526 76 173 1.0 4.0 0.00 0.00 0.00 49 1014.2
20260510145026 76 240 0.0 5.0 0.00 0.00 0.00 49 1014.1
20260510144538 75 198 1.0 5.0 0.00 0.00 0.00 49 1014.1
20260510144026 76 167 1.0 5.0 0.00 0.00 0.00 52 1014.2
20260510143526 76 221 2.0 4.0 0.00 0.00 0.00 54 1014.1
20260510143042 75 351 1.0 4.0 0.00 0.00 0.00 52 1014.1
20260510142526 74 0 0.0 7.0 0.00 0.00 0.00 49 1014.1
20260510142026 74 0 2.0 7.0 0.00 0.00 0.00 52 1014.1
20260510141541 74 289 2.0 6.0 0.00 0.00 0.00 54 1014.0
20260510141027 74 237 1.0 4.0 0.00 0.00 0.00 57 1014.0
20260510140526 73 80 0.0 6.0 0.00 0.00 0.00 58 1013.9
20260510140038 72 229 2.0 6.0 0.00 0.00 0.00 59 1014.0
20260510135526 72 262 2.0 5.0 0.00 0.00 0.00 60 1014.0
20260510135027 72 0 0.0 3.0 0.00 0.00 0.00 62 1013.9
20260510134544 71 259 1.0 6.0 0.00 0.00 0.00 60 1013.9
20260510134026 71 284 1.0 7.0 0.00 0.00 0.00 63 1013.9
20260510133526 71 277 2.0 7.0 0.00 0.00 0.00 64 1014.1
20260510133043 71 263 2.0 6.0 0.00 0.00 0.00 65 1014.2
20260510132526 70 84 1.0 4.0 0.00 0.00 0.00 68 1014.1
20260510132026 69 256 1.0 4.0 0.00 0.00 0.00 70 1014.1
20260510131539 69 273 1.0 5.0 0.00 0.00 0.00 70 1013.8
20260510131026 68 313 1.0 6.0 0.00 0.00 0.00 71 1013.8
20260510130526 68 303 2.0 6.0 0.00 0.00 0.00 72 1013.9
20260510130042 67 302 1.0 3.0 0.00 0.00 0.00 73 1013.8
20260510125526 67 192 0.0 3.0 0.00 0.00 0.00 73 1013.9
20260510125025 66 0 0.0 5.0 0.00 0.00 0.00 76 1013.8
20260510124545 66 225 2.0 6.0 0.00 0.00 0.00 77 1013.9
20260510124026 65 0 0.0 6.0 0.00 0.00 0.00 78 1013.8
20260510123524 65 242 1.0 6.0 0.00 0.00 0.00 79 1013.7
20260510123037 64 0 0.0 0.0 0.00 0.00 0.00 82 1013.6
20260510122525 63 0 0.0 0.0 0.00 0.00 0.00 83 1013.5
20260510122026 62 0 0.0 0.0 0.00 0.00 0.00 85 1013.6
20260510121537 62 0 0.0 0.0 0.00 0.00 0.00 87 1013.6
20260510121027 61 0 0.0 0.0 0.00 0.00 0.00 89 1013.5
20260510120527 60 0 0.0 0.0 0.00 0.00 0.00 89 1013.4
20260510120037 59 0 0.0 2.0 0.00 0.00 0.00 90 1013.4
20260510115526 59 0 0.0 2.0 0.00 0.00 0.00 90 1013.4
20260510115026 58 0 0.0 2.0 0.00 0.00 0.00 89 1013.4
20260510114543 57 0 0.0 3.0 0.00 0.00 0.00 89 1013.4
20260510114026 56 0 0.0 4.0 0.00 0.00 0.00 89 1013.3
20260510113525 55 128 0.0 4.0 0.00 0.00 0.00 88 1013.2
20260510113042 55 0 0.0 0.0 0.00 0.00 0.00 88 1013.2
20260510112526 55 0 0.0 0.0 0.00 0.00 0.00 88 1013.0
20260510112026 55 0 0.0 0.0 0.00 0.00 0.00 87 1012.9
20260510111601 55 0 0.0 0.0 0.00 0.00 0.00 87 1012.7
20260510111022 55 0 0.0 0.0 0.00 0.00 0.00 87 1012.7
20260510110525 55 0 0.0 0.0 0.00 0.00 0.00 87 1012.6
20260510110039 55 0 0.0 0.0 0.00 0.00 0.00 87 1012.4
20260510105525 55 0 0.0 0.0 0.00 0.00 0.00 86 1012.4
20260510105025 55 0 0.0 0.0 0.00 0.00 0.00 86 1012.4
20260510104538 55 0 0.0 0.0 0.00 0.00 0.00 86 1012.3
20260510104026 55 0 0.0 0.0 0.00 0.00 0.00 86 1012.2
20260510103527 55 0 0.0 0.0 0.00 0.00 0.00 86 1012.2
20260510103041 55 0 0.0 0.0 0.00 0.00 0.00 86 1012.2
20260510102526 55 0 0.0 0.0 0.00 0.00 0.00 85 1012.1
20260510102026 55 0 0.0 0.0 0.00 0.00 0.00 85 1012.3
20260510101542 55 0 0.0 0.0 0.00 0.00 0.00 85 1012.2
20260510101026 56 0 0.0 0.0 0.00 0.00 0.00 85 1012.0
20260510100526 56 0 0.0 0.0 0.00 0.00 0.00 85 1011.7
20260510100038 56 0 0.0 0.0 0.00 0.00 0.00 85 1011.6
20260510095525 56 0 0.0 0.0 0.00 0.00 0.00 85 1011.5
20260510095026 56 0 0.0 0.0 0.00 0.00 0.00 85 1011.5
20260510094541 56 0 0.0 0.0 0.00 0.00 0.00 85 1011.5
20260510094025 56 0 0.0 0.0 0.00 0.00 0.00 84 1011.5
20260510093525 57 0 0.0 0.0 0.00 0.00 0.00 84 1011.3
20260510093057 57 0 0.0 0.0 0.00 0.00 0.00 84 1011.4
20260510092526 57 0 0.0 0.0 0.00 0.00 0.00 84 1011.4
20260510092026 57 0 0.0 0.0 0.00 0.00 0.00 84 1011.4
20260510091537 57 0 0.0 0.0 0.00 0.00 0.00 84 1011.3
20260510091027 57 0 0.0 0.0 0.00 0.00 0.00 84 1011.3
20260510090526 58 0 0.0 0.0 0.00 0.00 0.00 84 1011.3
20260510090053 58 0 0.0 0.0 0.00 0.00 0.00 84 1011.2
20260510085525 58 0 0.0 0.0 0.00 0.00 0.00 84 1011.0
20260510085026 58 0 0.0 0.0 0.00 0.00 0.00 84 1010.9
20260510084540 58 0 0.0 0.0 0.00 0.00 0.00 84 1011.1
20260510084026 59 0 0.0 0.0 0.00 0.00 0.00 84 1011.1
20260510083526 59 0 0.0 0.0 0.00 0.00 0.00 84 1011.1
20260510083048 59 0 0.0 0.0 0.00 0.00 0.00 83 1011.0
20260510082525 59 0 0.0 0.0 0.00 0.00 0.00 83 1011.0
20260510082025 59 0 0.0 0.0 0.00 0.00 0.00 84 1011.0
20260510081541 60 0 0.0 0.0 0.00 0.00 0.00 84 1010.9
20260510081025 60 0 0.0 0.0 0.00 0.00 0.00 83 1010.8
20260510080527 60 0 0.0 0.0 0.00 0.00 0.00 83 1010.9
20260510080045 60 0 0.0 0.0 0.00 0.00 0.00 83 1011.0
20260510075526 60 0 0.0 0.0 0.00 0.00 0.00 83 1010.9
20260510075026 60 0 0.0 0.0 0.00 0.00 0.00 83 1010.7
20260510074537 61 0 0.0 0.0 0.00 0.00 0.00 83 1010.8
20260510074026 61 0 0.0 0.0 0.00 0.00 0.00 83 1010.8
20260510073526 61 0 0.0 0.0 0.00 0.00 0.00 82 1010.7
20260510073041 61 0 0.0 0.0 0.00 0.00 0.00 82 1010.7
20260510072526 61 0 0.0 0.0 0.00 0.00 0.00 82 1010.7
20260510072026 61 0 0.0 2.0 0.00 0.00 0.00 83 1010.6
20260510071543 62 0 0.0 3.0 0.00 0.00 0.00 82 1010.5
20260510071025 62 0 0.0 4.0 0.00 0.00 0.00 82 1010.6
20260510070526 62 338 0.0 4.0 0.00 0.00 0.00 82 1010.5
20260510070043 62 271 0.0 4.0 0.00 0.00 0.00 82 1010.6
20260510065529 62 0 0.0 3.0 0.00 0.00 0.00 82 1010.5
20260510065026 62 0 0.0 2.0 0.00 0.00 0.00 82 1010.5
20260510064551 62 0 0.0 4.0 0.00 0.00 0.00 82 1010.4
20260510064025 62 0 0.0 7.0 0.00 0.00 0.00 82 1010.6
20260510063525 62 0 1.0 7.0 0.00 0.00 0.00 82 1010.5
20260510063041 62 0 0.0 3.0 0.00 0.00 0.00 82 1010.7
20260510062527 62 0 0.0 3.0 0.00 0.00 0.00 81 1010.7
20260510062026 62 0 0.0 3.0 0.00 0.00 0.00 81 1010.7
20260510061538 62 0 1.0 3.0 0.00 0.00 0.00 81 1010.6
20260510061026 62 0 0.0 0.0 0.00 0.00 0.00 80 1010.7
20260510060526 63 0 0.0 0.0 0.00 0.00 0.00 80 1011.0
20260510060043 63 0 0.0 0.0 0.00 0.00 0.00 80 1010.9
20260510055527 63 0 0.0 0.0 0.00 0.00 0.00 80 1010.8
20260510055026 63 0 0.0 0.0 0.00 0.00 0.00 80 1010.9
20260510054542 63 0 0.0 0.0 0.00 0.00 0.00 80 1010.8
20260510054026 63 0 0.0 0.0 0.00 0.00 0.00 80 1011.0
20260510053526 63 0 0.0 0.0 0.00 0.00 0.00 80 1010.8
20260510053042 63 0 0.0 0.0 0.00 0.00 0.00 80 1011.0
20260510052526 63 0 0.0 2.0 0.00 0.00 0.00 80 1011.1
20260510052026 63 0 0.0 2.0 0.00 0.00 0.00 80 1011.1
20260510051540 63 0 0.0 3.0 0.00 0.00 0.00 80 1011.1
20260510051027 63 240 0.0 3.0 0.00 0.00 0.00 80 1011.1
20260510050527 63 0 0.0 3.0 0.00 0.00 0.00 80 1011.2
20260510050042 63 0 0.0 3.0 0.00 0.00 0.00 80 1011.1
20260510045526 63 302 0.0 3.0 0.00 0.00 0.00 81 1011.2
20260510045026 63 282 1.0 3.0 0.00 0.00 0.00 82 1011.2
20260510044551 62 281 0.0 5.0 0.00 0.00 0.00 82 1011.2
20260510044026 62 0 1.0 7.0 0.00 0.00 0.00 83 1011.0
20260510043526 61 237 1.0 7.0 0.00 0.00 0.00 83 1011.1
20260510043042 61 286 2.0 6.0 0.00 0.00 0.00 83 1011.1
20260510042526 60 287 0.0 2.0 0.00 0.00 0.00 83 1011.0
20260510042025 60 0 0.0 0.0 0.00 0.00 0.00 83 1011.0
20260510041540 60 0 0.0 0.0 0.00 0.00 0.00 82 1011.1
20260510041026 60 0 0.0 2.0 0.00 0.00 0.00 82 1010.9
20260510040527 60 0 0.0 2.0 0.00 0.00 0.00 82 1011.1
20260510040043 60 289 0.0 1.0 0.00 0.00 0.00 82 1010.8
20260510035525 60 0 0.0 0.0 0.00 0.00 0.00 81 1010.8
20260510035025 60 0 0.0 0.0 0.00 0.00 0.00 81 1010.9
20260510034538 60 0 0.0 0.0 0.00 0.00 0.00 81 1010.9
20260510034026 60 0 0.0 0.0 0.00 0.00 0.00 81 1010.8
20260510033526 60 0 0.0 0.0 0.00 0.00 0.00 80 1010.8
20260510033041 60 0 0.0 0.0 0.00 0.00 0.00 80 1010.7
20260510032525 60 0 0.0 0.0 0.00 0.00 0.00 80 1010.8
20260510032026 60 0 0.0 0.0 0.00 0.00 0.00 80 1010.7
20260510031539 60 0 0.0 0.0 0.00 0.00 0.00 80 1010.8
20260510031026 60 0 0.0 0.0 0.00 0.00 0.00 79 1010.6
20260510030526 60 0 0.0 0.0 0.00 0.00 0.00 79 1010.6
20260510030040 61 0 0.0 0.0 0.00 0.00 0.00 79 1010.6
20260510025526 61 0 0.0 0.0 0.00 0.00 0.00 79 1010.6
20260510025026 61 0 0.0 0.0 0.00 0.00 0.00 78 1010.4
20260510024541 61 0 0.0 0.0 0.00 0.00 0.00 78 1010.3
20260510024025 61 0 0.0 0.0 0.00 0.00 0.00 77 1010.4
20260510023528 62 0 0.0 0.0 0.00 0.00 0.00 77 1010.4
20260510023043 62 0 0.0 0.0 0.00 0.00 0.00 77 1010.5
20260510022526 62 0 0.0 0.0 0.00 0.00 0.00 76 1010.3
20260510022026 62 0 0.0 0.0 0.00 0.00 0.00 76 1010.3
20260510021542 62 0 0.0 0.0 0.00 0.00 0.00 75 1010.2
20260510021025 62 0 0.0 0.0 0.00 0.00 0.00 75 1010.1
20260510020525 63 0 0.0 0.0 0.00 0.00 0.00 75 1010.0
20260510020046 63 0 0.0 0.0 0.00 0.00 0.00 74 1010.0
20260510015527 63 0 0.0 2.0 0.00 0.00 0.00 74 1010.0
20260510015027 63 0 0.0 2.0 0.00 0.00 0.00 74 1009.8
20260510014543 63 0 0.0 1.0 0.00 0.00 0.00 74 1009.8
20260510014027 64 0 0.0 0.0 0.00 0.00 0.00 73 1009.9
20260510013527 64 0 0.0 1.0 0.00 0.00 0.00 73 1009.9
20260510013041 64 0 0.0 1.0 0.00 0.00 0.00 73 1009.7
20260510012526 64 0 0.0 1.0 0.00 0.00 0.00 73 1009.8
20260510012026 64 0 0.0 0.0 0.00 0.00 0.00 72 1009.7
20260510011538 64 0 0.0 0.0 0.00 0.00 0.00 72 1009.7
20260510011025 64 0 0.0 0.0 0.00 0.00 0.00 72 1009.7
20260510010525 64 0 0.0 0.0 0.00 0.00 0.00 72 1009.6
20260510010041 65 0 0.0 0.0 0.00 0.00 0.00 72 1009.6
20260510005527 65 0 0.0 0.0 0.00 0.00 0.00 72 1009.6
20260510005026 65 0 0.0 0.0 0.00 0.00 0.00 71 1009.6
20260510004541 66 0 0.0 0.0 0.00 0.00 0.00 71 1009.5
20260510004026 66 0 0.0 0.0 0.00 0.00 0.00 70 1009.5
20260510003526 66 0 0.0 0.0 0.00 0.00 0.00 69 1009.4
20260510003039 67 0 0.0 0.0 0.00 0.00 0.00 69 1009.2
20260510002526 67 0 0.0 1.0 0.00 0.00 0.00 68 1009.2
20260510002026 68 0 0.0 1.0 0.00 0.00 0.00 67 1009.2
20260510001545 68 0 0.0 1.0 0.00 0.00 0.00 66 1008.9
20260510001026 69 0 0.0 1.0 0.00 0.00 0.00 65 1009.0
20260510000527 70 0 0.0 1.0 0.00 0.00 0.00 63 1009.1
20260510000044 70 0 0.0 1.0 0.00 0.00 0.00 62 1008.9
20260509235526 71 0 0.0 1.0 0.00 0.00 0.00 61 1008.9
20260509235028 72 0 0.0 2.0 0.00 0.00 0.00 59 1008.6
20260509234539 73 0 0.0 2.0 0.00 0.00 0.00 57 1008.5
20260509234026 73 0 0.0 5.0 0.00 0.00 0.00 55 1008.6
20260509233525 74 0 1.0 5.0 0.00 0.00 0.00 54 1008.6
20260509233048 74 160 0.0 4.0 0.00 0.00 0.00 53 1008.7
20260509232526 74 0 0.0 7.0 0.00 0.00 0.00 53 1008.6
20260509232027 75 223 0.0 7.0 0.00 0.00 0.00 52 1008.7
20260509231540 75 294 0.0 6.0 0.00 0.00 0.00 51 1008.6
20260509231025 75 0 0.0 6.0 0.00 0.00 0.00 51 1008.5
20260509230526 75 0 0.0 2.0 0.00 0.00 0.00 51 1008.5
20260509230039 74 0 0.0 2.0 0.00 0.00 0.00 52 1008.6
20260509225526 74 214 0.0 2.0 0.00 0.00 0.00 51 1008.7
20260509225026 74 0 0.0 4.0 0.00 0.00 0.00 51 1008.7
20260509224540 74 0 0.0 7.0 0.00 0.00 0.00 51 1008.5
20260509224026 75 0 1.0 9.0 0.00 0.00 0.00 50 1008.6
20260509223526 75 209 1.0 9.0 0.00 0.00 0.00 50 1008.4
20260509223042 75 143 2.0 9.0 0.00 0.00 0.00 50 1008.4
20260509222525 75 296 0.0 8.0 0.00 0.00 0.00 53 1008.5
20260509222026 75 178 2.0 8.0 0.00 0.00 0.00 51 1008.3
20260509221541 75 0 1.0 6.0 0.00 0.00 0.00 50 1008.4
20260509221027 75 0 1.0 7.0 0.00 0.00 0.00 50 1008.5
20260509220525 75 0 1.0 7.0 0.00 0.00 0.00 51 1008.5
20260509220042 75 268 3.0 7.0 0.00 0.00 0.00 50 1008.4
20260509215527 75 294 3.0 8.0 0.00 0.00 0.00 51 1008.4
20260509215026 75 0 1.0 9.0 0.00 0.00 0.00 49 1008.3
20260509214543 75 278 3.0 9.0 0.00 0.00 0.00 49 1008.4
20260509214026 76 256 3.0 8.0 0.00 0.00 0.00 50 1008.3
20260509213526 75 269 2.0 7.0 0.00 0.00 0.00 49 1008.3
20260509213047 76 277 2.0 7.0 0.00 0.00 0.00 48 1008.2
20260509212525 76 238 2.0 10.0 0.00 0.00 0.00 49 1008.2
20260509212026 75 225 2.0 10.0 0.00 0.00 0.00 48 1008.1
20260509211549 76 196 3.0 6.0 0.00 0.00 0.00 49 1008.3
20260509211027 76 186 2.0 6.0 0.00 0.00 0.00 47 1008.2
20260509210526 76 238 2.0 6.0 0.00 0.00 0.00 48 1008.2
20260509210044 76 209 2.0 10.0 0.00 0.00 0.00 50 1008.2
20260509205525 75 269 3.0 10.0 0.00 0.00 0.00 49 1008.3
20260509205030 75 75 2.0 9.0 0.00 0.00 0.00 51 1008.3
20260509204544 75 186 4.0 9.0 0.00 0.00 0.00 50 1008.4
20260509204025 75 288 3.0 9.0 0.00 0.00 0.00 49 1008.4
20260509203527 75 285 3.0 9.0 0.00 0.00 0.00 49 1008.4
20260509203053 74 259 2.0 11.0 0.00 0.00 0.00 50 1008.4
20260509202528 74 299 4.0 11.0 0.00 0.00 0.00 49 1008.5
20260509202031 74 202 4.0 10.0 0.00 0.00 0.00 51 1008.6
20260509201541 74 288 3.0 10.0 0.00 0.00 0.00 50 1008.7
20260509201028 74 253 2.0 8.0 0.00 0.00 0.00 52 1008.6
20260509200526 74 261 2.0 8.0 0.00 0.00 0.00 49 1008.6
20260509200041 74 294 3.0 7.0 0.00 0.00 0.00 50 1008.6
20260509195527 74 0 1.0 6.0 0.00 0.00 0.00 50 1008.7
20260509195026 74 238 3.0 7.0 0.00 0.00 0.00 48 1008.9
20260509194545 74 304 2.0 7.0 0.00 0.00 0.00 50 1008.8
20260509194026 74 196 3.0 10.0 0.00 0.00 0.00 47 1008.8
20260509193526 75 278 2.0 10.0 0.00 0.00 0.00 47 1008.9
20260509193047 75 0 1.0 7.0 0.00 0.00 0.00 50 1008.9
20260509192527 75 284 2.0 10.0 0.00 0.00 0.00 49 1008.9
20260509192027 75 167 2.0 10.0 0.00 0.00 0.00 48 1009.0
20260509191548 75 243 4.0 9.0 0.00 0.00 0.00 46 1009.0
20260509191028 75 106 3.0 9.0 0.00 0.00 0.00 49 1009.0
20260509190525 74 227 4.0 12.0 0.00 0.00 0.00 47 1009.2
20260509190041 75 206 4.0 12.0 0.00 0.00 0.00 46 1009.4
20260509185526 74 315 3.0 11.0 0.00 0.00 0.00 48 1009.3
20260509185029 74 250 4.0 10.0 0.00 0.00 0.00 47 1009.4
20260509184541 74 241 1.0 11.0 0.00 0.00 0.00 48 1009.4
20260509184025 74 199 4.0 11.0 0.00 0.00 0.00 47 1009.5
20260509183525 74 51 3.0 13.0 0.00 0.00 0.00 48 1009.6
20260509183047 74 207 4.0 13.0 0.00 0.00 0.00 47 1009.5
20260509182526 75 236 6.0 13.0 0.00 0.00 0.00 47 1009.6
20260509182025 75 0 3.0 9.0 0.00 0.00 0.00 49 1009.7
20260509181540 74 142 2.0 11.0 0.00 0.00 0.00 50 1009.8
20260509181026 73 296 3.0 12.0 0.00 0.00 0.00 49 1009.8
20260509180527 74 250 3.0 12.0 0.00 0.00 0.00 48 1009.8
20260509180037 74 250 5.0 12.0 0.00 0.00 0.00 48 1010.0